Dallas/Ft Worth, TX

7:06 AM CDT on July 22, 2017 (GMT -0500)
Dallas-Fort Worth International

Weather History for KDFW - June, 2013

Change the Weather History Date:

Thursday, June 27, 2013

  Actual Average Record
Temperature  
Mean Temperature 90 °F 83 °F  
Max Temperature 100 °F 94 °F 113 °F (1980)
Min Temperature 79 °F 73 °F 59 °F (1974)
Degree Days  
Heating Degree Days 0 0  
Month to date heating degree days 0 0  
Since 1 June heating degree days 0 0  
Since 1 July heating degree days 2045 2284  
Cooling Degree Days 25 18  
Month to date cooling degree days 471 435  
Year to date cooling degree days 860 857  
Since 1 June cooling degree days 471 435  
Growing Degree Days 40 (Base 50)    
Moisture  
Dew Point 68 °F    
Average Humidity 54    
Maximum Humidity 74    
Minimum Humidity 33    
Precipitation  
Precipitation 0.00 in 0.10 in 2.82 in (1962)
Month to date precipitation 2.14 3.49  
Year to date precipitation 15.30 19.74  
Sea Level Pressure  
Sea Level Pressure 29.91 in    
Wind  
Wind Speed 10 mph (South)    
Max Wind Speed 16 mph    
Max Gust Speed -    
Visibility 10 miles    
Events      
T = Trace of Precipitation, MM = Missing Value Source: NWS Daily Summary

Daily Weather History Graph

Daily Weather History Graph

Search for Another Location

Airport or City:

Trip Planner

Search our weather history database for the weather conditions in past years. The results will help you decide how hot, cold, wet, or windy it might be!

Date:

Astronomy

Jun. 27, 2013 Rise Set
Actual Time 6:22 AM CDT 8:40 PM CDT
Civil Twilight 5:53 AM CDT 9:09 PM CDT
Nautical Twilight 5:18 AM CDT 9:44 PM CDT
Astronomical Twilight 4:40 AM CDT 10:22 PM CDT
Moon 11:56 PM CDT (6/27) 11:08 AM CDT (6/27)
Length of Visible Light 15h 15m
Length of Day
14h 18m
Waning Gibbous, 76% of the Moon is Illuminated
Jun 27
Waning Gibbous
Jun 29
Last Quarter
Jul 8
New
Jul 15
First Quarter
Jul 22
Full

Hourly Weather History & Observations

Time (CDT) Temp. Heat Index Dew Point Humidity Pressure Visibility Wind Dir Wind Speed Gust Speed Precip Events Conditions
12:53 AM 86.0 °F 87.6 °F 64.9 °F 49% 29.87 in 10.0 mi South 9.2 mph - N/A   Clear
1:53 AM 84.0 °F 86.3 °F 66.0 °F 55% 29.87 in 10.0 mi South 10.4 mph - N/A   Clear
2:53 AM 84.0 °F 86.3 °F 66.0 °F 55% 29.87 in 10.0 mi South 11.5 mph - N/A   Clear
3:53 AM 84.0 °F 86.3 °F 66.0 °F 55% 29.88 in 10.0 mi South 13.8 mph - N/A   Clear
4:53 AM 82.0 °F 84.5 °F 66.9 °F 60% 29.90 in 10.0 mi South 12.7 mph - N/A   Clear
5:53 AM 80.1 °F 82.7 °F 68.0 °F 67% 29.92 in 10.0 mi South 11.5 mph - N/A   Scattered Clouds
6:53 AM 79.0 °F - 69.1 °F 72% 29.95 in 10.0 mi SSW 10.4 mph - N/A   Mostly Cloudy
7:53 AM 80.1 °F 83.2 °F 70.0 °F 71% 29.98 in 10.0 mi South 13.8 mph - N/A   Mostly Cloudy
8:53 AM 82.0 °F 86.3 °F 71.1 °F 69% 29.98 in 10.0 mi SSW 16.1 mph - N/A   Scattered Clouds
9:53 AM 84.9 °F 90.1 °F 71.1 °F 63% 29.98 in 10.0 mi SSW 13.8 mph - N/A   Partly Cloudy
10:53 AM 89.1 °F 95.0 °F 71.1 °F 55% 29.97 in 10.0 mi SSW 10.4 mph - N/A   Clear
11:53 AM 91.9 °F 98.4 °F 71.1 °F 50% 29.96 in 10.0 mi SSW 9.2 mph - N/A   Clear
12:53 PM 93.9 °F 100.8 °F 71.1 °F 47% 29.95 in 10.0 mi SSW 8.1 mph - N/A   Clear
1:53 PM 96.1 °F 102.9 °F 70.0 °F 43% 29.93 in 10.0 mi South 6.9 mph - N/A   Partly Cloudy
2:53 PM 97.0 °F 102.2 °F 68.0 °F 39% 29.91 in 10.0 mi SSW 6.9 mph - N/A   Scattered Clouds
3:53 PM 100.0 °F 107.0 °F 69.1 °F 37% 29.90 in 10.0 mi Variable 4.6 mph - N/A   Mostly Cloudy
4:53 PM 98.1 °F 103.0 °F 68.0 °F 37% 29.88 in 10.0 mi SE 6.9 mph - N/A   Mostly Cloudy
5:53 PM 99.0 °F 101.7 °F 64.0 °F 32% 29.86 in 10.0 mi South 9.2 mph - N/A   Mostly Cloudy
6:53 PM 97.0 °F 99.9 °F 64.9 °F 35% 29.86 in 10.0 mi SE 6.9 mph - N/A   Mostly Cloudy
7:53 PM 95.0 °F 99.0 °F 66.9 °F 40% 29.84 in 10.0 mi SE 12.7 mph - N/A   Scattered Clouds
8:53 PM 91.0 °F 93.8 °F 66.0 °F 44% 29.84 in 10.0 mi SSE 6.9 mph - N/A   Partly Cloudy
9:53 PM 89.1 °F 90.3 °F 64.0 °F 43% 29.88 in 10.0 mi SSE 5.8 mph - N/A   Partly Cloudy
10:53 PM 88.0 °F 89.6 °F 64.9 °F 46% 29.92 in 10.0 mi ESE 3.5 mph - N/A   Scattered Clouds
11:53 PM 84.9 °F 86.6 °F 64.9 °F 51% 29.91 in 10.0 mi SE 6.9 mph - N/A   Scattered Clouds